Flag for Argentina Weather past 2 weeks in Zárate, Buenos Aires, Argentina

Now
61 °F

Fog.


Feels Like: 61 °F
Forecast: 51 / 74 °F
Wind: 6 mph from Southwest

Location: Buenos Aires Airport

Current Time: Sep 19, 2014 at 7:54:27 AM

Latest Report: Sep 19, 2014 at 7:00 AM


Visibility: 3 mi

Pressure: 29.89 "Hg

Humidity: 88%

Dew point: 57 °F

Location of ZárateLocation

Historic Weather in Zárate — Graph

°F

Zárate temperature yesterday

Maximum temperature yesterday: 64 °F (at 3:00 PM)
Minimum temperature yesterday: 57 °F (at 7:00 AM)
Average temperature yesterday: 61 °F

Past Weeks' High & Low Weather Summary

 TemperatureHumidityPressure
High70 °F (Sep 7, 3:00 PM)100% (Sep 6, 8:00 AM)30.18 "Hg (Sep 6, 8:00 AM)
Low50 °F (Sep 10, 7:00 AM)24% (Sep 11, 1:00 PM)29.53 "Hg (Sep 9, 5:00 AM)
Average61 °F69%29.99 "Hg
* Reported Sep 4 6:00 AM — Sep 19 6:00 AM, Zárate, Weather by CustomWeather, © 2014

Note: Actual official high and low records may vary slightly from our data, if they occured in-between our weather recording intervals... More about our weather records

Advertising

Zárate weather history for previous 24 hours

 ConditionsComfort  
Time TempWeatherWind HumidityBarometerVisibility
6:00 AM
Sep 19
61 °FSunny.7 mph83%29.86 "Hg10 mi
5:00 AM61 °FClear.5 mph88%29.86 "Hg10 mi
4:00 AM61 °FClear.6 mph88%29.86 "Hg10 mi
3:00 AM63 °FOvercast.5 mph88%29.89 "HgN/A
1:00 AM63 °FOvercast.8 mph88%29.92 "HgN/A
12:00 AM63 °FMostly cloudy.7 mph88%29.92 "HgN/A
11:00 PM
Sep 18
61 °FClear.16 mph83%29.92 "Hg10 mi
10:00 PM61 °FClear.10 mph83%29.95 "Hg10 mi
9:00 PM61 °FClear.12 mph88%29.95 "Hg10 mi
8:00 PM63 °FClear.12 mph83%29.92 "Hg10 mi
7:00 PM63 °FClear.10 mph77%29.92 "Hg10 mi
6:00 PM64 °FClear.9 mph68%29.92 "Hg10 mi
5:00 PM64 °FSunny.10 mph73%29.92 "Hg10 mi
4:00 PM64 °FSunny.8 mph68%29.95 "Hg10 mi
3:00 PM64 °FScattered clouds.5 mph68%29.95 "HgN/A
2:00 PM61 °FScattered clouds.5 mph83%29.98 "HgN/A
1:00 PM61 °FPartly sunny.6 mph83%30.01 "HgN/A
12:00 PM61 °FPartly sunny.6 mph83%30.04 "HgN/A
11:00 AM61 °FPartly sunny.7 mph83%30.04 "HgN/A
10:00 AM61 °FScattered clouds.5 mph83%30.04 "HgN/A
9:00 AM61 °FScattered clouds.6 mph83%30.04 "HgN/A
8:00 AM59 °FScattered clouds.6 mph82%30.04 "HgN/A
7:00 AM57 °FScattered clouds.7 mph88%30.04 "HgN/A
Weather by CustomWeather, © 2014

See weather overviewHow to use our weather pages